Home   Weather   May Pen   Past weeks

Flag for Jamaica Past Weather in May Pen, Jamaica — Yesterday and Last 2 Weeks

Now
84 °F

Passing clouds.


Feels Like: 87 °F
Forecast: 70 / 87 °F
Wind: 8 mph from Southwest

Location: Kingston / Norman Manley

Current Time: Jan 17, 2017 at 12:31:09 pm

Latest Report: Jan 17, 2017 at 12:00 pm


Visibility: N/A

Pressure: 30.04 "Hg

Humidity: 58%

Dew Point: 68 °F

Location of May PenLocation

Past Weather in May Pen — Graph

°F

May Pen Temperature Yesterday

Maximum temperature yesterday: 86 °F (at 1:00 pm)
Minimum temperature yesterday: 73 °F (at 6:00 am)
Average temperature yesterday: 80 °F

High & Low Weather Summary for the Past Weeks

 TemperatureHumidityPressure
High91 °F (Jan 2, 1:00 pm)100% (Jan 9, 9:00 pm)32.64 "Hg (Jan 9, 9:00 pm)
Low72 °F (Jan 11, 7:00 am)38% (Jan 12, 1:00 pm)29.86 "Hg (Jan 3, 4:00 pm)
Average81 °F65%30.00 "Hg
* Reported Jan 2 11:00 am — Jan 17 11:00 am, May Pen, Weather by CustomWeather, © 2017

Note: Actual official high and low records may vary slightly from our data, if they occured in-between our weather recording intervals... More about our weather records

Advertising

May Pen Weather History for the Previous 24 Hours

Scroll right to see more
 ConditionsComfort  
Time TempWeatherWind HumidityBarometerVisibility
11:00 am
Tue, Jan 17
82 °FPassing clouds.7 mph55%30.07 "HgN/A
10:00 am82 °FPassing clouds.6 mph58%30.07 "HgN/A
9:00 am79 °FPassing clouds.6 mph65%30.07 "HgN/A
8:00 am77 °FPassing clouds.9 mph69%30.04 "HgN/A
7:00 am73 °FPassing clouds.8 mph89%30.01 "HgN/A
6:00 am77 °FPassing clouds.8 mph69%30.01 "HgN/A
5:00 am77 °FPassing clouds.5 mph69%29.98 "HgN/A
4:00 am77 °FPassing clouds.3 mph74%29.98 "HgN/A
3:00 am75 °FPassing clouds.2 mph69%29.98 "HgN/A
2:00 am75 °FPassing clouds.8 mph74%29.98 "HgN/A
1:00 am79 °FPassing clouds.8 mph70%30.01 "HgN/A
12:00 am77 °FPassing clouds.7 mph65%30.01 "HgN/A
11:00 pm
Mon, Jan 16
77 °FPassing clouds.6 mph65%30.01 "HgN/A
10:00 pm81 °FPassing clouds.7 mph58%30.04 "HgN/A
9:00 pm81 °FPassing clouds.7 mph62%30.04 "HgN/A
8:00 pm81 °FPassing clouds.6 mph58%30.01 "HgN/A
7:00 pm82 °FPassing clouds.12 mph58%29.98 "HgN/A
6:00 pm82 °FPassing clouds.13 mph62%29.98 "HgN/A
5:00 pm86 °FPassing clouds.8 mph52%29.95 "HgN/A
4:00 pm86 °FScattered clouds.7 mph55%29.95 "HgN/A
3:00 pm86 °FScattered clouds.17 mph59%29.95 "HgN/A
2:00 pm84 °FPassing clouds.9 mph58%29.95 "HgN/A
1:00 pm86 °FPassing clouds.7 mph59%29.98 "HgN/A
12:00 pm84 °FPassing clouds.8 mph55%30.01 "HgN/A
Weather by CustomWeather, © 2017

See weather overviewHow to use our weather pages